Home   Weather   San Angelo   Past weeks

Flag for USA Past Weather in San Angelo, Texas, USA — Yesterday and Last 2 Weeks

Now
48 °F

Clear.


Feels Like: 44 °F
Forecast: 47 / 68 °F
Wind: 9 mph from Southwest

Location: Mathis Field

Current Time: Jan 20, 2017 at 10:52:06 pm

Latest Report: Jan 20, 2017 at 9:51 pm


Visibility: 10 mi

Pressure: 29.65 "Hg (27.71 "Hg at 561m altitude)

Humidity: 59%

Dew Point: 34 °F

Location of San AngeloLocation

Past Weather in San Angelo — Graph

°F

San Angelo Temperature Yesterday

Maximum temperature yesterday: 72 °F (at 2:51 pm)
Minimum temperature yesterday: 36 °F (at 3:20 am)
Average temperature yesterday: 51 °F

High & Low Weather Summary for the Past Weeks

 TemperatureHumidityPressure
High82 °F (Jan 11, 1:51 pm)100% (Jan 14, 8:17 am)30.78 "Hg (Jan 14, 8:17 am)
Low12 °F (Jan 7, 5:51 am)17% (Jan 20, 3:51 pm)29.60 "Hg (Jan 20, 4:51 pm)
Average47 °F71%30.12 "Hg
* Reported Jan 5 8:51 pm — Jan 20 8:51 pm, San Angelo, Weather by CustomWeather, © 2017

Note: Actual official high and low records may vary slightly from our data, if they occured in-between our weather recording intervals... More about our weather records

Advertising

San Angelo Weather History for the Previous 24 Hours

Scroll right to see more
 ConditionsComfort  
Time TempWeatherWind HumidityBarometerVisibility
8:51 pm
Fri, Jan 20
51 °FClear.8 mph52%29.65 "Hg10 mi
7:51 pm55 °FClear.9 mph45%29.65 "Hg10 mi
6:51 pm60 °FClear.9 mph35%29.65 "Hg10 mi
5:51 pm65 °FSunny.8 mph28%29.61 "Hg10 mi
4:51 pm72 °FSunny.13 mph19%29.60 "Hg10 mi
3:51 pm74 °FSunny.16 mph17%29.61 "Hg10 mi
2:51 pm74 °FSunny.18 mph18%29.62 "Hg10 mi
1:51 pm73 °FSunny.20 mph19%29.65 "Hg10 mi
12:51 pm71 °FSunny.14 mph23%29.68 "Hg10 mi
11:51 am68 °FSunny.13 mph28%29.73 "Hg10 mi
10:51 am63 °FSunny.15 mph34%29.78 "Hg10 mi
9:51 am59 °FSunny.17 mph39%29.77 "Hg10 mi
8:51 am54 °FSunny.12 mph43%29.76 "Hg10 mi
7:51 am51 °FSunny.13 mph48%29.73 "Hg10 mi
6:51 am51 °FClear.15 mph50%29.70 "Hg10 mi
5:51 am51 °FClear.12 mph52%29.68 "Hg10 mi
4:51 am55 °FClear.16 mph44%29.68 "Hg10 mi
3:51 am56 °FClear.15 mph39%29.69 "Hg10 mi
2:51 am56 °FClear.15 mph39%29.67 "Hg10 mi
1:51 am53 °FClear.12 mph41%29.67 "Hg10 mi
12:51 am51 °FClear.12 mph46%29.69 "Hg10 mi
11:51 pm
Thu, Jan 19
54 °FClear.18 mph41%29.69 "Hg10 mi
10:51 pm52 °FClear.12 mph47%29.70 "Hg10 mi
Weather by CustomWeather, © 2017

See weather overviewHow to use our weather pages